Погода в Болниси

Погода в Болниси : погода сейчас, прогноз погоды и архив. Всё, что Вы хотите узнать о погоде в Болниси!

Поиск расширенной информации на нашем сайте:

Другие новости

Новости СМИ2

Главная страница сайта

Новости сайта

03.07.2017

Напоминаем, что на нашем специализированном сайте Метеоцентр.Азия вы можете получить высокодетализированные автоматические прогнозы погоды по пунктам России, СНГ и мира в авиационном формате (включающие направление и скорость ветра, видимость, явления погоды, количество и форму облачности, нижнюю и верхнюю границу облачности).


Погода в Болниси - сегодня

Время (UTC), дата Ветер
(°,м/с) 
Видим.   Явления Облачность Т
(°С)
Тd
(°С)
f(%) Тe
(°С)
Pmin
(гПа)
dP
(гПа)
Po
(мм)
O2
(г/м3)
Тmin Tmax R s Состояние
почвы
15 21.09.17 140 (ЮВ) 20000 м    9/9 1000 м кучево-дожд. 
[Cb cap]
+26.9 +14.4 46 +36  1010.8  0.1  714  259    +30.6       
18 21.09.17 тихо ()   н/о    10/10 600 м кучево-дожд. 
[Cb cap]
+24.6 +13.7 51 +32  1012.4  1.1  714  261    +30.5       
21 21.09.17 тихо ()   н/о    3/0 1000 м средняя 
[Ac trans]
+21.7 +12.7 57 +28  1013.6  0.6  715  264           
00 22.09.17 тихо ()   н/о    3/0 1000 м средняя 
[Ac trans]
+19.7 +13.4 67 +27  1013.4  -0.7  714  266           
03 22.09.17 тихо ()   20000 м    5/0 1000 м средняя 
[Ac trans]
+18.9 +12.8 68 +25  1013.8  0.3  715  267           
06 22.09.17 270 (З) 20000 м    3/0 1000 м средняя 
[Ac trans]
+24.1 +14.7 56 +34  1012.7  715  262  +18         
09 22.09.17 140 (ЮВ) 20000 м    1/0 1000 м средняя 
[Ac trans]
+29.1 +17.3 49 +44  1009.6  -1.9  713  256           
12 22.09.17 140 (ЮВ) 20000 м    8/8 1000 м 
[Sc]
+28.3 +15.1 45 +39  1008.2  -1.5  712  257           
18 22.09.17 тихо ()   н/о    9/9 1000 м 
[Sc]
+24.5 +13.1 49 +31  1012.2  714  262    +30.6       
21 22.09.17 тихо ()   н/о    8/0 1000 м средняя 
[Ac trans]
+21.3 +12.9 59 +28  1013.2  0.3  715  264           
00 23.09.17 270 (З) н/о    4/0 1000 м средняя 
[Ac trans]
+20.5 +13.1 63 +27  1013.4  715  265           
03 23.09.17 270 (З) 20000 м    3/0 1000 м средняя 
[Ac trans]
+18.9 +12.5 66 +26  1013.9  0.2  715  267           
06 23.09.17 270 (З) 20000 м    6/0 1000 м средняя 
[Ac trans]
+25 +15.9 57 +37  1013.5  0.9  715  261  +18.6         
09 23.09.17 090 (В) 20000 м    5/3 1000 м средняя 
[Cu med, cong|Ac trans]
+27.9 +17.7 54 +43  1012.7  -0.2  715  257           
12 23.09.17 070 (В) 20000 м    4/1 1000 м средняя 
[Cu med, cong|Ac trans]
+27.9 +16.7 51 +41  1012.2  -0.5  715  258           
15 23.09.17 070 (В) 20000 м    4/0 1000 м средняя 
[Ac trans]
+26 +17.7 60 +41  1012.8  0.3  715  259    +29.6       
18 23.09.17 090 (В) н/о    9/9 1000 м 
[Sc]
+24.2 +16.5 62 +37  1014.9  1.6  716  261    +29.6       
21 23.09.17 тихо ()   н/о    10/10 600 м 
[Sc]
+22.3 +15.9 67 +34  1016.4  717  264           
00 24.09.17 тихо ()   н/о    8/0 1000 м средняя 
[Ac trans]
+20.8 +15.1 70 +31  1017.1  0.3  717  265           
03 24.09.17 050 (СВ) 20000 м    8/0 1000 м средняя 
[Ac trans]
+19.1 +14.5 75 +30  1018.2  0.7  718  267           
06 24.09.17 320 (СЗ) 20000 м    3/0 1000 м средняя 
[Ac trans]
+25.5 +16.8 59 +39  1017.7  0.9  718  261  +19         
09 24.09.17 090 (В) 20000 м    ясно 
+27.9 +15.8 48 +39  1015.4  -1.7  717  259           
12 24.09.17 140 (ЮВ) 20000 м    1/0 средняя, верхняя 
[Ac trans|Ci fib]
+28.5 +15.3 45 +39  1014.4  -0.9  716  258    +4.8       
15 24.09.17 070 (В) 20000 м    8/8 1000 м 
[Sc]
+25.7 +13.7 47 +33  1015.9  0.8  717  261    +29.6       
18 24.09.17 тихо ()   н/о  в посл. час ливневой дождь  3/0 1000 м средняя 
[Ac trans]
+20.5 +13.3 63 +27  1018.2  1.2  718  266    +29.6       
Время (UTC), дата Ветер
(°,м/с) 
Видим.   Явления Облачность Т
(°С)
Тd
(°С)
f(%) Тe
(°С)
Pmin
(гПа)
dP
(гПа)
Po
(мм)
O2
(г/м3)
Тmin Tmax R s Состояние
почвы

Для получения пояснительной информации подведите курсор к названию столбца.

ПОГОДА в Болниси - архив

Всё, что Вы хотите узнать о погоде в Болниси - удобно и подробно!

Выберите нужную дату (начиная с 1 января 2015* года) и нажмите кнопку "Найти".
Будут отображены архивные сводки погоды по пункту Болниси, начиная с указанной даты.


Отображать данные в формате CSV (для использования в таблицах Excel)


Внимание! Наш архив погоды предназначен исключительно для личного некоммерческого использования в познавательных целях. Если Вам необходимы официальные справки о состоянии погоды (для производственных, юридических, коммерческих и т.п. целей), обращайтесь в органы Росгидромета.

*Примечание: данная дата относится к архиву по метеостанциям СССР (Россия, СНГ, Балтия).
Архив по метеостанциям Зарубежной Европы и Азии (кроме Китая) хранится 10 дней, по другим регионам земного шара (Китай, Африка, Америка, Австралия, Океания) - 1 день.

Болниси - район местоположения метеостанции


Название, широта, долгота, высота метеостанции:
Болниси 41.4°ш. 44.6°д. 534 м над ур. моря [Грузия]

Дополнительная информация

В oтличие oт бoльшинства пoгoдных сайтoв мы публикуем пoдрoбную метеoинфoрмацию в детальнoм прoфессиoнальнoм фoрмате.

Характеристики температуры и влажнoсти вoздуха измеряются на высoте 2 м в тени вдали oт зданий и деревьев.
Скoрoсть ветра измеряется на высoте 10 м (на урoвне рoста челoвека скoрoсть ветра ниже в 1.5-2 раза). Если метеoстанция нахoдится в гoрoде или в лесу, тo скoрoсть ветра занижена на 2-4 м/с пo сравнению с oткрытым местoм. Скoрoсть ветра над акватoриями крупных рек и oзёр, а также на вершинах хoлмoв на 2-5 м/с выше, чем в oбычных услoвиях.
Атмoсфернoе давление в разных тoчках местнoсти мoжет значительнo oтличаться oт давления на метеoстанции, в зависимoсти oт услoвий рельефа (при пoдъёме на 10 м давление пoнижается примернo на 1 мм рт.ст.).